| time (UTC) | temp F | wind direction | speed knots | gust knots | rain 1hr in | rain 24hr in | rain mn in | humidity % | barometer mb |
| 20260509234051 | 60 | 34 | 5.2 | 12.2 | 0.72 | 1.26 | 1.26 | 81 | 1006.5 |
| 20260509233110 | 59 | 4 | 5.2 | 7.8 | 0.22 | 0.77 | 0.77 | 84 | 1006.5 |
| 20260509232044 | 58 | 18 | 7.0 | 13.0 | 0.14 | 0.59 | 0.59 | 82 | 1006.5 |
| 20260509231040 | 59 | 23 | 7.0 | 11.3 | 0.12 | 0.54 | 0.54 | 89 | 1006.6 |
| 20260509230036 | 57 | 2 | 5.2 | 9.6 | 0.12 | 0.54 | 0.54 | 89 | 1006.7 |
| 20260509225033 | 57 | 26 | 6.1 | 12.2 | 0.12 | 0.54 | 0.54 | 86 | 1006.7 |
| 20260509224030 | 57 | 16 | 6.1 | 12.2 | 0.15 | 0.54 | 0.54 | 84 | 1006.7 |
| 20260509223026 | 58 | 28 | 6.1 | 14.8 | 0.34 | 0.54 | 0.54 | 81 | 1006.7 |
| 20260509222023 | 59 | 358 | 6.1 | 13.9 | 0.25 | 0.45 | 0.45 | 80 | 1006.8 |
| 20260509221019 | 59 | 324 | 4.3 | 8.7 | 0.22 | 0.43 | 0.43 | 79 | 1006.7 |
| 20260509220116 | 59 | 29 | 4.3 | 9.6 | 0.22 | 0.43 | 0.43 | 80 | 1006.7 |
| 20260509215133 | 59 | 290 | 5.2 | 8.7 | 0.22 | 0.43 | 0.43 | 82 | 1006.7 |
| 20260509214109 | 57 | 163 | 6.1 | 15.6 | 0.19 | 0.39 | 0.39 | 83 | 1006.7 |
| 20260509213125 | 57 | 188 | 5.2 | 9.6 | 0.00 | 0.20 | 0.20 | 79 | 1006.6 |
| 20260509212101 | 59 | 33 | 5.2 | 9.6 | 0.06 | 0.20 | 0.20 | 78 | 1006.5 |
| 20260509211058 | 58 | 22 | 6.1 | 11.3 | 0.11 | 0.20 | 0.20 | 80 | 1006.5 |
| 20260509210054 | 58 | 28 | 5.2 | 9.6 | 0.11 | 0.20 | 0.20 | 81 | 1006.4 |
| 20260509205051 | 57 | 30 | 4.3 | 7.0 | 0.11 | 0.20 | 0.20 | 88 | 1006.2 |
| 20260509204048 | 57 | 43 | 4.3 | 7.8 | 0.11 | 0.20 | 0.20 | 96 | 1006.0 |
| 20260509203105 | 55 | 23 | 5.2 | 9.6 | 0.11 | 0.20 | 0.20 | 99 | 1006.0 |
| 20260509202041 | 54 | 23 | 5.2 | 10.4 | 0.05 | 0.14 | 0.14 | 99 | 1005.9 |
| 20260509201037 | 54 | 28 | 4.3 | 7.0 | 0.00 | 0.09 | 0.09 | 99 | 1005.9 |
| 20260509200034 | 54 | 30 | 3.5 | 7.0 | 0.00 | 0.09 | 0.09 | 99 | 1005.7 |
| 20260509195030 | 54 | 20 | 3.5 | 8.7 | 0.00 | 0.09 | 0.09 | 99 | 1005.6 |
| 20260509194027 | 53 | 234 | 3.5 | 7.8 | 0.00 | 0.09 | 0.09 | 99 | 1005.6 |
| 20260509193023 | 53 | 7 | 4.3 | 7.0 | 0.00 | 0.09 | 0.09 | 99 | 1005.5 |
| 20260509192102 | 53 | 348 | 4.3 | 7.0 | 0.00 | 0.09 | 0.09 | 99 | 1005.5 |
| 20260509191016 | 53 | 318 | 5.2 | 9.6 | 0.00 | 0.09 | 0.09 | 99 | 1005.3 |
| 20260509190113 | 53 | 8 | 4.3 | 7.8 | 0.00 | 0.09 | 0.09 | 99 | 1005.2 |
| 20260509185131 | 52 | 269 | 4.3 | 7.0 | 0.00 | 0.09 | 0.09 | 99 | 1005.1 |
| 20260509184106 | 52 | 290 | 3.5 | 7.0 | 0.00 | 0.09 | 0.09 | 99 | 1005.2 |
| 20260509183103 | 52 | 2 | 3.5 | 7.0 | 0.00 | 0.09 | 0.09 | 99 | 1005.3 |
| 20260509182059 | 52 | 311 | 3.5 | 8.7 | 0.00 | 0.09 | 0.09 | 99 | 1005.3 |
| 20260509181056 | 52 | 353 | 3.5 | 7.8 | 0.00 | 0.20 | 0.09 | 99 | 1005.2 |
| 20260509180052 | 52 | 345 | 3.5 | 7.8 | 0.00 | 0.22 | 0.09 | 99 | 1005.2 |
| 20260509175049 | 53 | 315 | 4.3 | 7.8 | 0.00 | 0.22 | 0.09 | 99 | 1005.2 |
| 20260509174046 | 53 | 17 | 4.3 | 7.0 | 0.00 | 0.22 | 0.09 | 99 | 1005.0 |
| 20260509173042 | 53 | 323 | 4.3 | 7.0 | 0.09 | 0.22 | 0.09 | 99 | 1005.1 |
| 20260509172039 | 53 | 114 | 3.5 | 7.0 | 0.09 | 0.22 | 0.09 | 97 | 1005.0 |
| 20260509171034 | 52 | 356 | 5.2 | 10.4 | 0.09 | 0.22 | 0.09 | 96 | 1005.0 |
| 20260509170031 | 52 | 15 | 4.3 | 7.0 | 0.09 | 0.22 | 0.09 | 95 | 1005.0 |
| 20260509165028 | 52 | 315 | 3.5 | 5.2 | 0.09 | 0.26 | 0.09 | 95 | 1005.0 |
| 20260509164025 | 52 | 45 | 7.0 | 10.4 | 0.09 | 0.26 | 0.09 | 94 | 1004.9 |
| 20260509163042 | 52 | 45 | 3.5 | 7.0 | 0.00 | 0.17 | 0.00 | 94 | 1004.9 |
| 20260509162018 | 52 | 281 | 2.6 | 6.1 | 0.00 | 0.17 | 0.00 | 94 | 1005.1 |
| 20260509161135 | 52 | 241 | 1.7 | 3.5 | 0.00 | 0.17 | 0.00 | 94 | 1005.1 |
| 20260509160111 | 52 | 273 | 1.7 | 3.5 | 0.00 | 0.17 | 0.00 | 94 | 1005.1 |
| 20260509155106 | 52 | 338 | 2.6 | 5.2 | 0.00 | 0.17 | 0.00 | 95 | 1005.3 |
| 20260509154103 | 52 | 272 | 2.6 | 4.3 | 0.00 | 0.31 | 0.00 | 95 | 1005.4 |
| 20260509153059 | 52 | 266 | 1.7 | 4.3 | 0.00 | 0.37 | 0.00 | 95 | 1005.4 |
| 20260509152056 | 52 | 217 | 2.6 | 4.3 | 0.00 | 0.46 | 0.00 | 96 | 1005.5 |
| 20260509151052 | 52 | 231 | 3.5 | 7.0 | 0.00 | 0.46 | 0.00 | 96 | 1005.5 |
| 20260509150049 | 52 | 35 | 2.6 | 3.5 | 0.00 | 0.46 | 0.00 | 97 | 1005.6 |
| 20260509145046 | 52 | 260 | 2.6 | 5.2 | 0.00 | 0.47 | 0.00 | 97 | 1005.7 |
| 20260509144042 | 52 | 299 | 1.7 | 6.1 | 0.00 | 0.59 | 0.00 | 97 | 1005.7 |
| 20260509143039 | 52 | 241 | 1.7 | 3.5 | 0.00 | 0.59 | 0.00 | 97 | 1005.7 |
| 20260509142037 | 52 | 258 | 2.6 | 5.2 | 0.00 | 0.59 | 0.00 | 98 | 1005.8 |
| 20260509141032 | 52 | 301 | 1.7 | 3.5 | 0.00 | 0.59 | 0.00 | 98 | 1005.7 |
| 20260509140049 | 52 | 185 | 1.7 | 3.5 | 0.00 | 0.59 | 0.00 | 99 | 1005.7 |
| 20260509135025 | 52 | 338 | 1.7 | 3.5 | 0.00 | 0.77 | 0.00 | 99 | 1005.7 |
| 20260509134023 | 52 | 34 | 2.6 | 6.1 | 0.00 | 0.77 | 0.00 | 99 | 1005.9 |
| 20260509133018 | 52 | 101 | 2.6 | 4.3 | 0.00 | 0.77 | 0.00 | 99 | 1006.0 |
| 20260509132115 | 52 | 257 | 1.7 | 3.5 | 0.00 | 0.78 | 0.00 | 99 | 1006.1 |
| 20260509131152 | 52 | 262 | 1.7 | 2.6 | 0.00 | 0.90 | 0.00 | 99 | 1006.1 |
| 20260509130109 | 52 | 350 | 1.7 | 3.5 | 0.00 | 0.99 | 0.00 | 99 | 1006.4 |
| 20260509125105 | 52 | 54 | 2.6 | 4.3 | 0.00 | 0.99 | 0.00 | 99 | 1006.3 |
| 20260509124143 | 52 | 18 | 2.6 | 4.3 | 0.00 | 0.99 | 0.00 | 99 | 1006.4 |
| 20260509123117 | 53 | 328 | 2.6 | 3.5 | 0.00 | 0.99 | 0.00 | 99 | 1006.4 |
| 20260509122135 | 53 | 168 | 3.5 | 9.6 | 0.00 | 0.99 | 0.00 | 99 | 1006.5 |
| 20260509121109 | 53 | 303 | 1.7 | 3.5 | 0.00 | 0.99 | 0.00 | 99 | 1006.6 |
| 20260509120045 | 53 | 281 | 1.7 | 3.5 | 0.00 | 0.99 | 0.00 | 99 | 1006.5 |
| 20260509115042 | 53 | 346 | 2.6 | 4.3 | 0.00 | 1.25 | 1.24 | 99 | 1006.5 |
| 20260509114100 | 54 | 344 | 1.7 | 3.5 | 0.00 | 1.51 | 1.24 | 99 | 1006.5 |
| 20260509113035 | 54 | 1 | 3.5 | 7.8 | 0.00 | 1.58 | 1.24 | 99 | 1006.6 |
| 20260509112052 | 54 | 270 | 1.7 | 2.6 | 0.00 | 1.58 | 1.24 | 99 | 1006.7 |
| 20260509111028 | 54 | 2 | 2.6 | 5.2 | 0.00 | 1.58 | 1.24 | 99 | 1006.6 |
| 20260509110045 | 54 | 12 | 3.5 | 6.1 | 0.00 | 1.58 | 1.24 | 99 | 1006.9 |
| 20260509105023 | 54 | 330 | 2.6 | 6.1 | 0.00 | 1.58 | 1.24 | 99 | 1006.9 |
| 20260509104018 | 54 | 4 | 1.7 | 3.5 | 0.00 | 1.68 | 1.24 | 99 | 1006.7 |
| 20260509103116 | 54 | 345 | 2.6 | 3.5 | 0.00 | 1.68 | 1.24 | 99 | 1006.8 |
| 20260509102111 | 55 | 33 | 2.6 | 7.0 | 0.00 | 1.68 | 1.24 | 99 | 1006.7 |
| 20260509101107 | 55 | 351 | 2.6 | 7.0 | 0.00 | 1.74 | 1.24 | 99 | 1006.7 |
| 20260509100124 | 55 | 106 | 2.6 | 4.3 | 0.00 | 1.74 | 1.24 | 99 | 1006.6 |
| 20260509095101 | 55 | 31 | 3.5 | 5.2 | 0.00 | 1.74 | 1.24 | 99 | 1006.7 |
| 20260509094056 | 55 | 37 | 2.6 | 3.5 | 0.00 | 1.74 | 1.24 | 98 | 1006.6 |
| 20260509093115 | 55 | 38 | 3.5 | 5.2 | 0.00 | 2.26 | 1.24 | 98 | 1006.6 |
| 20260509092051 | 56 | 17 | 1.7 | 3.5 | 0.00 | 2.26 | 1.24 | 98 | 1006.6 |
| 20260509091046 | 56 | 164 | 1.7 | 3.5 | 0.00 | 2.26 | 1.24 | 98 | 1006.6 |
| 20260509090045 | 56 | 11 | 0.9 | 3.5 | 0.00 | 2.26 | 1.24 | 98 | 1006.6 |
| 20260509085039 | 56 | 244 | 2.6 | 4.3 | 0.00 | 2.31 | 1.24 | 98 | 1006.6 |
| 20260509084036 | 56 | 16 | 1.7 | 4.3 | 0.00 | 2.31 | 1.24 | 97 | 1006.4 |
| 20260509083032 | 56 | 256 | 1.7 | 3.5 | 0.00 | 2.44 | 1.24 | 97 | 1006.5 |
| 20260509082029 | 56 | 320 | 2.6 | 4.3 | 0.00 | 2.44 | 1.24 | 97 | 1006.5 |
| 20260509081026 | 55 | 292 | 1.7 | 2.6 | 0.00 | 2.44 | 1.24 | 97 | 1006.5 |
| 20260509080022 | 55 | 249 | 3.5 | 4.3 | 0.00 | 2.44 | 1.24 | 97 | 1006.6 |
| 20260509075018 | 56 | 226 | 3.5 | 9.6 | 0.00 | 2.44 | 1.24 | 98 | 1006.7 |
| 20260509074115 | 56 | 260 | 3.5 | 7.0 | 0.00 | 2.44 | 1.24 | 98 | 1006.6 |
| 20260509073112 | 56 | 303 | 2.6 | 5.2 | 0.00 | 2.44 | 1.24 | 98 | 1006.5 |
| 20260509072108 | 56 | 245 | 2.6 | 5.2 | 0.00 | 2.44 | 1.24 | 98 | 1006.4 |
| 20260509071105 | 56 | 249 | 2.6 | 5.2 | 0.00 | 2.44 | 1.24 | 98 | 1006.3 |
| 20260509070144 | 56 | 225 | 1.7 | 3.5 | 0.00 | 2.44 | 1.24 | 98 | 1006.3 |
| 20260509065057 | 56 | 225 | 1.7 | 3.5 | 0.00 | 2.44 | 1.24 | 98 | 1006.2 |
| 20260509064054 | 56 | 234 | 0.9 | 1.7 | 0.00 | 2.44 | 1.24 | 97 | 1006.2 |
| 20260509063051 | 56 | 249 | 0.9 | 1.7 | 0.00 | 2.44 | 1.24 | 97 | 1006.4 |
| 20260509062108 | 56 | 235 | 1.7 | 2.6 | 0.00 | 2.44 | 1.24 | 97 | 1006.3 |
| 20260509061044 | 56 | 256 | 1.7 | 4.3 | 0.00 | 2.44 | 1.24 | 96 | 1006.2 |
| 20260509060041 | 56 | 234 | 2.6 | 5.2 | 0.00 | 2.44 | 1.24 | 95 | 1006.3 |
| 20260509055037 | 56 | 304 | 2.6 | 4.3 | 0.00 | 2.44 | 1.24 | 95 | 1006.1 |
| 20260509054034 | 56 | 19 | 1.7 | 2.6 | 0.00 | 2.44 | 1.24 | 95 | 1006.0 |
| 20260509053030 | 56 | 225 | 1.7 | 3.5 | 0.00 | 2.44 | 1.24 | 95 | 1006.2 |
| 20260509052027 | 56 | 266 | 3.5 | 6.1 | 0.00 | 2.44 | 1.24 | 95 | 1006.4 |
| 20260509051023 | 56 | 350 | 3.5 | 5.2 | 0.00 | 2.44 | 1.24 | 95 | 1006.5 |
| 20260509050020 | 57 | 267 | 3.5 | 9.6 | 0.00 | 2.44 | 1.24 | 94 | 1006.6 |
| 20260509045135 | 57 | 299 | 3.5 | 9.6 | 0.00 | 2.44 | 1.24 | 93 | 1006.7 |
| 20260509044112 | 57 | 290 | 3.5 | 7.0 | 0.00 | 2.44 | 1.24 | 92 | 1006.8 |
| 20260509043109 | 57 | 237 | 3.5 | 6.1 | 0.00 | 2.44 | 1.24 | 91 | 1007.0 |
| 20260509042104 | 57 | 241 | 2.6 | 6.1 | 0.00 | 2.44 | 1.24 | 90 | 1006.9 |
| 20260509041100 | 57 | 244 | 3.5 | 5.2 | 0.00 | 2.44 | 1.24 | 88 | 1007.0 |
| 20260509040057 | 58 | 357 | 1.7 | 4.3 | 0.00 | 2.44 | 1.24 | 88 | 1006.8 |
| 20260509035055 | 58 | 264 | 2.6 | 5.2 | 0.00 | 2.44 | 1.24 | 88 | 1006.8 |
| 20260509034110 | 58 | 314 | 2.6 | 3.5 | 0.00 | 2.44 | 1.24 | 86 | 1006.7 |
| 20260509033047 | 58 | 296 | 1.7 | 4.3 | 0.00 | 2.44 | 1.24 | 83 | 1006.7 |
| 20260509032043 | 59 | 244 | 2.6 | 5.2 | 0.00 | 2.44 | 1.24 | 80 | 1006.8 |
| 20260509031119 | 62 | 185 | 2.6 | 7.8 | 0.00 | 2.44 | 1.24 | 77 | 1006.7 |
| 20260509030035 | 62 | 57 | 3.5 | 7.0 | 0.00 | 2.44 | 1.24 | 74 | 1006.7 |
| 20260509025031 | 64 | 240 | 4.3 | 7.0 | 0.00 | 2.44 | 1.24 | 69 | 1006.9 |
| 20260509024028 | 66 | 342 | 3.5 | 6.1 | 0.00 | 2.44 | 1.24 | 69 | 1006.9 |
| 20260509023025 | 65 | 3 | 5.2 | 9.6 | 0.00 | 2.44 | 1.24 | 70 | 1006.9 |
| 20260509022041 | 63 | 227 | 4.3 | 9.6 | 0.00 | 2.44 | 1.24 | 73 | 1007.0 |
| 20260509021017 | 62 | 215 | 3.5 | 5.2 | 0.00 | 2.44 | 1.24 | 72 | 1007.0 |
| 20260509020114 | 63 | 188 | 3.5 | 7.0 | 0.00 | 2.44 | 1.24 | 72 | 1007.1 |
| 20260509015111 | 64 | 1 | 4.3 | 7.8 | 0.00 | 2.44 | 1.24 | 70 | 1007.0 |
| 20260509014107 | 64 | 310 | 2.6 | 6.1 | 0.00 | 2.44 | 1.24 | 71 | 1007.0 |
| 20260509013103 | 63 | 203 | 5.2 | 7.8 | 0.00 | 2.44 | 1.24 | 72 | 1007.0 |
| 20260509012101 | 64 | 26 | 6.1 | 10.4 | 0.00 | 2.44 | 1.24 | 67 | 1006.9 |
| 20260509011056 | 66 | 231 | 5.2 | 11.3 | 0.00 | 2.44 | 1.24 | 66 | 1007.0 |
| 20260509010053 | 66 | 39 | 4.3 | 9.6 | 0.00 | 2.44 | 1.24 | 71 | 1007.1 |
| 20260509005109 | 62 | 307 | 5.2 | 8.7 | 0.00 | 2.44 | 1.24 | 75 | 1007.3 |
| 20260509004046 | 62 | 310 | 5.2 | 13.9 | 0.00 | 2.44 | 1.24 | 72 | 1007.4 |
| 20260509003042 | 64 | 5 | 7.0 | 11.3 | 0.00 | 2.44 | 1.24 | 70 | 1007.5 |
| 20260509002038 | 63 | 283 | 5.2 | 9.6 | 0.00 | 2.44 | 1.24 | 72 | 1007.7 |
| 20260509001035 | 64 | 270 | 7.8 | 11.3 | 0.00 | 2.44 | 1.24 | 71 | 1007.9 |
| 20260509000031 | 63 | 336 | 7.0 | 15.6 | 0.00 | 2.44 | 1.24 | 74 | 1008.1 |
| 20260508235028 | 62 | 290 | 7.0 | 13.9 | 0.00 | 2.44 | 1.24 | 75 | 1008.2 |